This is the latest recevied weather packets stored in our database for station/object W3AJR. If no packets are shown the sender has not sent any weather packets the latest 10 day(s).
| Time | Temp. | Humidity | Pressure | Rain* | Wind** | Luminosity | Snow |
|---|---|---|---|---|---|---|---|
| 1778068735 | 16.67° C | 88% | 1009.5 hPa | 0 mm | - | 28 W/m² | - |
| 1778068433 | 16.67° C | 88% | 1009.4 hPa | 0 mm | - | 24 W/m² | - |
| 1778068131 | 16.67° C | 88% | 1009.4 hPa | 0 mm | - | 19 W/m² | - |
| 1778067828 | 16.67° C | 88% | 1009.6 hPa | 0 mm | - | 14 W/m² | - |
| 1778067527 | 16.67° C | 88% | 1009.6 hPa | 0 mm | - | 26 W/m² | - |
| 1778067224 | 16.67° C | 88% | 1009.6 hPa | 0 mm | - | 26 W/m² | - |
| 1778066921 | 16.67° C | 87% | 1009.6 hPa | 1.27 mm | - | 37 W/m² | - |
| 1778066618 | 17.22° C | 85% | 1009.6 hPa | 1.27 mm | - | 17 W/m² | - |
| 1778066315 | 17.78° C | 81% | 1009.8 hPa | 0 mm | - | 7 W/m² | - |
| 1778066013 | 17.78° C | 80% | 1009.7 hPa | 0 mm | - | 5 W/m² | - |
| 1778065711 | 18.33° C | 77% | 1009.7 hPa | 0 mm | - | 6 W/m² | - |
| 1778065408 | 18.33° C | 76% | 1009.6 hPa | 0 mm | - | 3 W/m² | - |
| 1778065105 | 18.33° C | 74% | 1009.4 hPa | 0 mm | - | 5 W/m² | - |
| 1778064801 | 18.33° C | 73% | 1009.2 hPa | 0 mm | - | 5 W/m² | - |
| 1778064498 | 18.33° C | 74% | 1009.2 hPa | 0 mm | - | 3 W/m² | - |
| 1778064196 | 18.89° C | 73% | 1009 hPa | 0 mm | - | 4 W/m² | - |
| 1778063894 | 18.89° C | 73% | 1009.2 hPa | 0 mm | - | 2 W/m² | - |
| 1778063591 | 18.89° C | 72% | 1008.9 hPa | 0 mm | - | 2 W/m² | - |
| 1778063288 | 18.89° C | 72% | 1009.1 hPa | 0 mm | - | 2 W/m² | - |
| 1778062986 | 18.89° C | 73% | 1009.2 hPa | 0 mm | - | 0 W/m² | - |
| 1778062683 | 18.89° C | 72% | 1009 hPa | 0 mm | - | 0 W/m² | - |
| 1778062379 | 18.89° C | 73% | 1009.2 hPa | 0 mm | - | 0 W/m² | - |
| 1778062077 | 18.89° C | 72% | 1008.9 hPa | 0 mm | - | 0 W/m² | - |
| 1778061775 | 18.89° C | 72% | 1008.9 hPa | 0 mm | - | 0 W/m² | - |
| 1778061474 | 18.89° C | 73% | 1008.8 hPa | 0 mm | - | 0 W/m² | - |
* Rain latest hour (hover to see other rain measurements)
** Current wind speed in m/s (hover to see current wind gust speed)